Location: City of Moscow
(46.7306°N, 116.9989°W)
Time: 04:16:36
(UTC+00:00)

Oscar 19 - Visible Passes

Search period start: 21 April 2026 00:00
Search period end: 01 May 2026 00:00
Orbit: 770 x 787 km, 98.9° (Epoch: 20 April)

Date Brightness Start Highest point End Pass type
(mag) Time Alt. Az. Time Alt. Az. Time Alt. Az.
23 Apr 13.4 03:22:39 10° SW 03:25:48 16° W 03:28:59 10° NW visible
26 Apr 13.4 03:22:44 10° SW 03:25:56 17° W 03:29:09 10° NW visible
29 Apr 13.4 03:22:50 10° SW 03:26:04 17° W 03:29:18 10° NW visible
